H1 CPF 2 NER 2025 7 25 9 206 01 glonass132 H2 1401201 9132 39620 2025 7 25 0 0 0 2025 7 28 23 45 0 900 1 1 0 0 0 1 H9 10 0 60881 0.00000 0 -23351563.242 -5036389.624 9009838.298 10 0 60881 900.00000 0 -24281521.395 -5177462.150 5950601.515 10 0 60881 1800.00000 0 -24851786.699 -5141759.776 2776070.144 10 0 60881 2700.00000 0 -25033709.172 -4978970.295 -452253.411 10 0 60881 3600.00000 0 -24811334.530 -4743629.599 -3671806.522 10 0 60881 4500.00000 0 -24182121.011 -4492583.725 -6820172.445 10 0 60881 5400.00000 0 -23157115.293 -4282356.687 -9836285.379 10 0 60881 6300.00000 0 -21760579.241 -4166535.163 -12661611.407 10 0 60881 7200.00000 0 -20029082.052 -4193280.514 -15241282.520 10 0 60881 8100.00000 0 -18010094.575 -4403073.571 -17525161.864 10 0 60881 9000.00000 0 -15760143.370 -4826787.963 -19468819.539 10 0 60881 9900.00000 0 -13342600.425 -5484174.276 -21034399.954 10 0 60881 10800.00000 0 -10825199.709 -6382820.255 -22191363.770 10 0 60881 11700.00000 0 -8277383.190 -7517632.456 -22917089.749 10 0 60881 12600.00000 0 -5767586.236 -8870863.046 -23197324.450 10 0 60881 13500.00000 0 -3360574.991 -10412682.612 -23026470.424 10 0 60881 14400.00000 0 -1114946.325 -12102276.899 -22407706.633 10 0 60881 15300.00000 0 919105.513 -13889423.262 -21352937.870 10 0 60881 16200.00000 0 2701662.440 -15716482.170 -19882573.228 10 0 60881 17100.00000 0 4204518.028 -17520721.310 -18025137.031 10 0 60881 18000.00000 0 5412114.942 -19236875.316 -15816718.944 10 0 60881 18900.00000 0 6321945.256 -20799833.682 -13300273.358 10 0 60881 19800.00000 0 6944397.347 -22147343.642 -10524781.389 10 0 60881 20700.00000 0 7302056.498 -23222613.518 -7544291.843 10 0 60881 21600.00000 0 7428489.780 -23976705.940 -4416860.260 10 0 60881 22500.00000 0 7366567.902 -24370619.215 -1203407.529 10 0 60881 23400.00000 0 7166396.615 -24376968.046 2033478.577 10 0 60881 24300.00000 0 6882947.027 -23981192.162 5230774.249 10 0 60881 25200.00000 0 6573486.998 -23182241.639 8326257.528 10 0 60881 26100.00000 0 6294924.167 -21992709.977 11259727.818 10 0 60881 27000.00000 0 6101174.602 -20438409.809 13974182.267 10 0 60881 27900.00000 0 6040669.639 -18557409.779 16416925.477 10 0 60881 28800.00000 0 6154107.028 -16398573.947 18540590.706 10 0 60881 29700.00000 0 6472541.714 -14019665.821 20304052.999 10 0 60881 30600.00000 0 7015896.693 -11485097.079 21673217.225 10 0 60881 31500.00000 0 7791956.261 -8863415.460 22621666.747 10 0 60881 32400.00000 0 8795883.498 -6224636.583 23131161.502 10 0 60881 33300.00000 0 10010281.645 -3637530.284 23191977.175 10 0 60881 34200.00000 0 11405796.392 -1166973.409 22803080.275 10 0 60881 35100.00000 0 12942233.594 1128522.368 21972136.863 10 0 60881 36000.00000 0 14570145.747 3199006.770 20715355.617 10 0 60881 36900.00000 0 16232821.226 5004921.889 19057168.792 10 0 60881 37800.00000 0 17868593.795 6518493.902 17029757.409 10 0 60881 38700.00000 0 19413376.713 7724629.621 14672429.610 10 0 60881 39600.00000 0 20803316.442 8621282.352 12030863.770 10 0 60881 40500.00000 0 21977455.928 9219273.389 9156230.329 10 0 60881 41400.00000 0 22880296.869 9541577.832 6104208.511 10 0 60881 42300.00000 0 23464154.283 9622105.527 2933916.217 10 0 60881 43200.00000 0 23691205.117 9504028.849 -293226.944 10 0 60881 44100.00000 0 23535145.007 9237727.858 -3514682.146 10 0 60881 45000.00000 0 22982383.420 8878439.377 -6667996.898 10 0 60881 45900.00000 0 22032726.374 8483708.953 -9692010.710 10 0 60881 46800.00000 0 20699517.124 8110753.043 -12528037.775 10 0 60881 47700.00000 0 19009227.717 7813842.665 -15121003.853 10 0 60881 48600.00000 0 17000517.068 7641819.028 -17420515.434 10 0 60881 49500.00000 0 14722793.460 7635846.260 -19381840.441 10 0 60881 50400.00000 0 12234340.050 7827496.669 -20966781.367 10 0 60881 51300.00000 0 9600080.173 8237250.140 -22144423.774 10 0 60881 52200.00000 0 6889074.343 8873472.118 -22891745.361 10 0 60881 53100.00000 0 4171852.226 9731914.684 -23194073.348 10 0 60881 54000.00000 0 1517689.836 10795763.350 -23045380.780 10 0 60881 54900.00000 0 -1008055.215 12036229.370 -22448415.244 10 0 60881 55800.00000 0 -3346439.758 13413664.305 -21414656.689 10 0 60881 56700.00000 0 -5447158.528 14879151.459 -19964104.233 10 0 60881 57600.00000 0 -7270402.337 16376508.461 -18124895.181 10 0 60881 58500.00000 0 -8788273.326 17844617.479 -15932762.839 10 0 60881 59400.00000 0 -9985698.197 19219985.247 -13430343.052 10 0 60881 60300.00000 0 -10860801.473 20439424.982 -10666342.599 10 0 60881 61200.00000 0 -11424723.625 21442746.488 -7694585.706 10 0 60881 62100.00000 0 -11700892.648 22175340.135 -4572957.633 10 0 60881 63000.00000 0 -11723780.976 22590544.478 -1362266.679 10 0 60881 63900.00000 0 -11537201.802 22651696.453 1874952.091 10 0 60881 64800.00000 0 -11192218.608 22333776.811 5075666.716 10 0 60881 65700.00000 0 -10744758.176 21624580.505 8177586.553 10 0 60881 66600.00000 0 -10253029.965 20525362.373 11120383.341 10 0 60881 67500.00000 0 -9774862.694 19050930.954 13846870.309 10 0 60881 68400.00000 0 -9365072.156 17229186.784 16304115.727 10 0 60881 69300.00000 0 -9072972.417 15100125.194 18444468.953 10 0 60881 70200.00000 0 -8940135.947 12714346.108 20226479.283 10 0 60881 71100.00000 0 -8998497.108 10131133.818 21615690.467 10 0 60881 72000.00000 0 -9268878.491 7416187.386 22585296.470 10 0 60881 72900.00000 0 -9760001.357 4639096.377 23116647.081 10 0 60881 73800.00000 0 -10468020.955 1870666.657 23199594.984 10 0 60881 74700.00000 0 -11376605.384 -819793.354 22832678.871 10 0 60881 75600.00000 0 -12457554.050 -3367114.467 22023140.283 10 0 60881 76500.00000 0 -13671929.440 -5712728.509 20786774.689 10 0 60881 77400.00000 0 -14971654.728 -7806849.740 19147620.250 10 0 60881 78300.00000 0 -16301510.629 -9610287.292 17137490.463 10 0 60881 79200.00000 0 -17601448.426 -11095815.336 14795359.496 10 0 60881 80100.00000 0 -18809123.068 -12249045.777 12166611.699 10 0 60881 81000.00000 0 -19862541.044 -13068768.777 9302169.090 10 0 60881 81900.00000 0 -20702712.857 -13566748.262 6257512.910 10 0 60881 82800.00000 0 -21276199.491 -13766981.946 3091617.405 10 0 60881 83700.00000 0 -21537446.447 -13704457.610 -134184.288 10 0 60881 84600.00000 0 -21450807.457 -13423458.178 -3357380.880 10 0 60881 85500.00000 0 -20992172.622 -12975486.995 -6515487.854 10 0 60882 0.00000 0 -20150132.101 -12416900.591 -9547253.411 10 0 60882 900.00000 0 -18926624.966 -11806348.198 -12393843.899 10 0 60882 1800.00000 0 -17337045.927 -11202126.535 -14999981.858 10 0 60882 2700.00000 0 -15409802.400 -10659560.302 -17315020.104 10 0 60882 3600.00000 0 -13185339.786 -10228519.603 -19293926.969 10 0 60882 4500.00000 0 -10714673.575 -9951178.952 -20898165.132 10 0 60882 5400.00000 0 -8057487.872 -9860112.839 -22096446.586 10 0 60882 6300.00000 0 -5279878.049 -9976808.888 -22865348.854 10 0 60882 7200.00000 0 -2451830.170 -10310662.227 -23189780.068 10 0 60882 8100.00000 0 355458.988 -10858494.660 -23063283.379 10 0 60882 9000.00000 0 3072310.643 -11604620.218 -22488174.037 10 0 60882 9900.00000 0 5633228.388 -12521455.760 -21475505.680 10 0 60882 10800.00000 0 7979387.552 -13570652.186 -20044865.538 10 0 60882 11700.00000 0 10060845.912 -14704699.751 -18224001.615 10 0 60882 12600.00000 0 11838383.362 -15868940.558 -16048288.255 10 0 60882 13500.00000 0 13284893.717 -17003903.788 -13560039.858 10 0 60882 14400.00000 0 14386270.446 -18047865.099 -10807685.755 10 0 60882 15300.00000 0 15141749.437 -18939521.578 -7844822.288 10 0 60882 16200.00000 0 15563695.093 -19620668.456 -4729160.994 10 0 60882 17100.00000 0 15676839.669 -20038763.247 -1521394.091 10 0 60882 18000.00000 0 15517009.317 -20149267.754 1715999.477 10 0 60882 18900.00000 0 15129392.262 -19917667.781 4919982.889 10 0 60882 19800.00000 0 14566424.104 -19321084.241 8028199.864 10 0 60882 20700.00000 0 13885381.523 -18349406.971 10980197.168 10 0 60882 21600.00000 0 13145787.852 -17005903.013 13718606.413 10 0 60882 22500.00000 0 12406741.689 -15307273.756 16190261.407 10 0 60882 23400.00000 0 11724282.487 -13283158.837 18347229.020 10 0 60882 24300.00000 0 11148904.889 -10975108.045 20147733.769 10 0 60882 25200.00000 0 10723326.673 -8435064.737 21556958.815 10 0 60882 26100.00000 0 10480603.921 -5723424.526 22547708.841 10 0 60882 27000.00000 0 10442671.863 -2906750.310 23100923.252 10 0 60882 27900.00000 0 10619371.670 -55238.556 23206031.143 10 0 60882 28800.00000 0 11008002.886 2759958.485 22861142.539 10 0 60882 29700.00000 0 11593419.209 5469444.416 22073073.363 10 0 60882 30600.00000 0 12348662.728 8008213.122 20857204.585 10 0 60882 31500.00000 0 13236109.471 10318098.284 19237178.823 10 0 60882 32400.00000 0 14209078.057 12349938.207 17244440.456 10 0 60882 33300.00000 0 15213834.151 14065367.947 14917627.971 10 0 60882 34200.00000 0 16191907.122 15438165.995 12301829.852 10 0 60882 35100.00000 0 17082622.291 16455101.136 9447717.731 10 0 60882 36000.00000 0 17825743.206 17116245.518 6410572.777 10 0 60882 36900.00000 0 18364113.578 17434741.921 3249223.377 10 0 60882 37800.00000 0 18646188.306 17436035.729 24913.897 10 0 60882 38700.00000 0 18628347.434 17156604.252 -3199874.236 10 0 60882 39600.00000 0 18276895.550 16642236.865 -6362626.796 10 0 60882 40500.00000 0 17569662.083 15945938.265 -9402003.433 10 0 60882 41400.00000 0 16497134.296 15125542.805 -12259023.658 10 0 60882 42300.00000 0 15063074.143 14241140.122 -14878209.271 10 0 60882 43200.00000 0 13284591.488 13352420.191 -17208661.174 10 0 60882 44100.00000 0 11191668.785 12516049.478 -19205049.702 10 0 60882 45000.00000 0 8826155.173 11783188.644 -20828499.173 10 0 60882 45900.00000 0 6240269.995 11197256.520 -22047349.357 10 0 60882 46800.00000 0 3494676.300 10792034.833 -22837778.847 10 0 60882 47700.00000 0 656202.905 10590194.078 -23184277.810 10 0 60882 48600.00000 0 -2204691.562 10602303.373 -23079960.450 10 0 60882 49500.00000 0 -5016608.248 10826366.914 -22526710.385 10 0 60882 50400.00000 0 -7709940.097 11247907.584 -21535155.316 10 0 60882 51300.00000 0 -10219533.038 11840595.202 -20124470.566 10 0 60882 52200.00000 0 -12487165.627 12567393.810 -18322014.383 10 0 60882 53100.00000 0 -14463743.673 13382180.306 -16162801.257 10 0 60882 54000.00000 0 -16111118.030 14231766.417 -13688822.858 10 0 60882 54900.00000 0 -17403449.379 15058238.548 -10948229.378 10 0 60882 55800.00000 0 -18328062.924 15801516.266 -7994387.300 10 0 60882 56700.00000 0 -18885757.326 16402020.297 -4884832.214 10 0 60882 57600.00000 0 -19090555.473 16803335.947 -1680137.830 10 0 60882 58500.00000 0 -18968908.747 16954758.064 1557275.653 10 0 60882 59400.00000 0 -18558389.666 16813608.448 4764369.297 10 0 60882 60300.00000 0 -17905929.759 16347226.528 7878724.025 10 0 60882 61200.00000 0 -17065678.880 15534548.129 10839764.577 10 0 60882 62100.00000 0 -16096578.164 14367205.048 13589943.927 10 0 60882 63000.00000 0 -15059750.711 12850098.703 16075864.371 10 0 60882 63900.00000 0 -14015821.379 11001423.740 18249313.160 10 0 60882 64800.00000 0 -13022279.479 8852140.786 20068192.740 10 0 60882 65700.00000 0 -12130995.718 6444920.749 21497328.163 10 0 60882 66600.00000 0 -11385997.537 3832605.102 22509137.021 10 0 60882 67500.00000 0 -10821595.584 1076246.539 23084150.166 10 0 60882 68400.00000 0 -10460938.794 -1757188.574 23211374.562 10 0 60882 69300.00000 0 -10315057.307 -4597360.830 22888492.565 10 0 60882 70200.00000 0 -10382431.921 -7373236.872 22121895.025 10 0 60882 71100.00000 0 -10649106.768 -10015796.918 20926548.459 10 0 60882 72000.00000 0 -11089339.442 -12460659.887 19325699.472 10 0 60882 72900.00000 0 -11666760.545 -14650518.822 17350422.352 10 0 60882 73800.00000 0 -12335993.718 -16537287.322 15039018.427 10 0 60882 74700.00000 0 -13044668.131 -18083869.405 12436278.372 10 0 60882 75600.00000 0 -13735739.275 -19265480.759 9592621.092 10 0 60882 76500.00000 0 -14350020.976 -20070467.680 6563124.988 10 0 60882 77400.00000 0 -14828822.743 -20500590.520 3406469.610 10 0 60882 78300.00000 0 -15116581.942 -20570760.565 183807.365 10 0 60882 79200.00000 0 -15163380.285 -20308241.783 -3042413.536 10 0 60882 80100.00000 0 -14927238.687 -19751351.075 -6209652.620 10 0 60882 81000.00000 0 -14376093.527 -18947711.509 -9256484.243 10 0 60882 81900.00000 0 -13489370.360 -17952131.674 -12123785.149 10 0 60882 82800.00000 0 -12259087.779 -16824199.981 -14755879.566 10 0 60882 83700.00000 0 -10690443.512 -15625694.677 -17101619.756 10 0 60882 84600.00000 0 -8801856.325 -14417918.186 -19115381.061 10 0 60882 85500.00000 0 -6624459.952 -13259067.592 -20757952.066 10 0 60883 0.00000 0 -4201068.281 -12201751.854 -21997302.375 10 0 60883 900.00000 0 -1584651.560 -11290759.603 -22809213.477 10 0 60883 1800.00000 0 1163611.545 -10561172.996 -23177758.462 10 0 60883 2700.00000 0 3976630.898 -10036905.462 -23095623.017 10 0 60883 3600.00000 0 6783953.507 -9729726.798 -22564259.001 10 0 60883 4500.00000 0 9514459.962 -9638816.712 -21593867.538 10 0 60883 5400.00000 0 12099096.886 -9750866.385 -20203210.934 10 0 60883 6300.00000 0 14473531.866 -10040724.368 -18419256.130 10 0 60883 7200.00000 0 16580620.096 -10472560.054 -16276655.784 10 0 60883 8100.00000 0 18372579.500 -11001495.796 -13817076.418 10 0 60883 9000.00000 0 19812783.107 -11575638.622 -11088386.289 10 0 60883 9900.00000 0 20877093.365 -12138425.150 -8143718.813 10 0 60883 10800.00000 0 21554682.309 -12631179.624 -5040430.067 10 0 60883 11700.00000 0 21848303.490 -12995775.668 -1838971.473 10 0 60883 12600.00000 0 21774004.685 -13177287.539 1398299.391 10 0 60883 13500.00000 0 21360294.670 -13126517.206 4608345.339 10 0 60883 14400.00000 0 20646800.652 -12802288.995 7728688.199 10 0 60883 15300.00000 0 19682474.471 -12173413.389 10698634.070 10 0 60883 16200.00000 0 18523425.046 -11220236.074 13460460.255 10 0 60883 17100.00000 0 17230470.085 -9935706.265 15960540.030 10 0 60883 18000.00000 0 15866511.695 -8325919.011 18150382.997 10 0 60883 18900.00000 0 14493847.355 -6410108.674 19987570.972 10 0 60883 19800.00000 0 13171529.829 -4220093.956 21436571.846 10 0 60883 20700.00000 0 11952886.887 -1799197.954 22469416.578 10 0 60883 21600.00000 0 10883304.227 799311.552 23066227.494 10 0 60883 22500.00000 0 9998363.453 3514196.656 23215589.031 10 0 60883 23400.00000 0 9322411.600 6278556.859 22914755.122 10 0 60883 24300.00000 0 8867620.470 9022374.367 22169690.445 10 0 60883 25200.00000 0 8633573.401 11675192.486 20994945.678 10 0 60883 26100.00000 0 8607395.300 14168817.176 19413369.773 10 0 60883 27000.00000 0 8764419.170 16439931.147 17455665.073 10 0 60883 27900.00000 0 9069360.332 18432513.533 15159793.712 10 0 60883 28800.00000 0 9477948.578 20099966.129 12570246.371 10 0 60883 29700.00000 0 9938949.575 21406859.215 9737186.893 10 0 60883 30600.00000 0 10396490.743 22330225.490 6715488.465 10 0 60883 31500.00000 0 10792594.093 22860349.081 3563679.256 10 0 60883 32400.00000 0 11069809.761 23001017.391 342817.128 10 0 60883 33300.00000 0 11173839.663 22769225.612 -2884685.518 10 0 60883 34200.00000 0 11056040.763 22194346.364 -6056264.469 10 0 60883 35100.00000 0 10675702.311 21316799.165 -9110411.162 10 0 60883 36000.00000 0 10002000.544 20186275.190 -11987861.745 10 0 60883 36900.00000 0 9015547.594 18859591.430 -14632744.820 10 0 60883 37800.00000 0 7709468.102 17398263.816 -16993665.715 10 0 60883 38700.00000 0 6089956.555 15865900.725 -19024706.274 10 0 60883 39600.00000 0 4176290.008 14325525.852 -20686320.649 10 0 60883 40500.00000 0 2000293.417 12836942.516 -21946109.612 10 0 60883 41400.00000 0 -394722.286 11454249.762 -22779458.100 10 0 60883 42300.00000 0 -2955507.233 10223614.521 -23170023.238 10 0 60883 43200.00000 0 -5620842.224 9181393.382 -23110062.857 10 0 60883 44100.00000 0 -8323850.530 8352683.072 -22600597.457 10 0 60883 45000.00000 0 -10994556.884 7750360.869 -21651401.677 10 0 60883 45900.00000 0 -13562587.928 7374655.646 -20280824.519 10 0 60883 46800.00000 0 -15959902.054 7213267.915 -18515440.935 10 0 60883 47700.00000 0 -18123434.807 7242034.062 -16389540.678 10 0 60883 48600.00000 0 -19997549.114 7426106.753 -13944463.695 10 0 60883 49500.00000 0 -21536187.522 7721601.449 -11227794.578 10 0 60883 50400.00000 0 -22704635.787 8077638.867 -8292431.706 10 0 60883 51300.00000 0 -23480823.467 8438696.090 -5195549.528 10 0 60883 52200.00000 0 -23856106.738 8747165.546 -1997474.878 10 0 60883 53100.00000 0 -23835500.663 8946011.999 1239499.741 10 0 60883 54000.00000 0 -23437351.890 8981413.468 4452341.437 10 0 60883 54900.00000 0 -22692466.487 8805272.645 7578515.608 10 0 60883 55800.00000 0 -21642731.074 8377491.107 10557212.474 10 0 60883 56700.00000 0 -20339286.905 7667908.974 13330536.485 10 0 60883 57600.00000 0 -18840335.353 6657827.216 15844634.700 10 0 60883 58500.00000 0 -17208668.709 5341047.917 18050741.790 10 0 60883 59400.00000 0 -15509031.228 3724388.514 19906121.490 10 0 60883 60300.00000 0 -13805421.971 1827648.419 21374886.820 10 0 60883 61200.00000 0 -12158452.728 -316970.442 22428684.089 10 0 60883 62100.00000 0 -10622871.270 -2665964.805 23047228.704 10 0 60883 63000.00000 0 -9245352.608 -5166107.048 23218683.789 10 0 60883 63900.00000 0 -8062649.194 -7756432.421 22939875.664 10 0 60883 64800.00000 0 -7100175.610 -10370554.424 22216343.234 10 0 60883 65700.00000 0 -6371084.995 -12939212.845 21062221.321 10 0 60883 66600.00000 0 -5875873.949 -15392949.716 19499960.807 10 0 60883 67500.00000 0 -5602530.721 -17664803.302 17559891.263 10 0 60883 68400.00000 0 -5527219.122 -19692909.627 15279634.408 10 0 60883 69300.00000 0 -5615468.468 -21422904.776 12703379.344 10 0 60883 70200.00000 0 -5823819.051 -22810029.347 9881032.920 10 0 60883 71100.00000 0 -6101853.754 -23820848.543 6867260.883 10 0 60883 72000.00000 0 -6394530.435 -24434517.013 3720437.555 10 0 60883 72900.00000 0 -6644717.080 -24643536.229 501523.560 10 0 60883 73800.00000 0 -6795823.176 -24453973.016 -2727107.366 10 0 60883 74700.00000 0 -6794416.516 -23885130.085 -5902870.290 10 0 60883 75600.00000 0 -6592715.065 -22968682.082 -8964176.864 10 0 60883 76500.00000 0 -6150848.446 -21747312.969 -11851625.853 10 0 60883 77400.00000 0 -5438793.042 -20272911.214 -14509153.470 10 0 60883 78300.00000 0 -4437898.123 -18604397.867 -16885121.287 10 0 60883 79200.00000 0 -3141937.273 -16805277.871 -18933320.654 10 0 60883 80100.00000 0 -1557639.146 -14941016.642 -20613874.038 10 0 60883 81000.00000 0 295326.818 -13076351.315 -21894015.665 10 0 60883 81900.00000 0 2384911.400 -11272648.840 -22748736.094 10 0 60883 82800.00000 0 4667772.090 -9585421.355 -23161277.813 10 0 60883 83700.00000 0 7090841.877 -8062102.721 -23123471.758 10 0 60883 84600.00000 0 9593316.770 -6740179.375 -22635907.554 10 0 60883 85500.00000 0 12108980.703 -5645753.950 -21707933.358 10 0 60884 0.00000 0 14568771.788 -4792602.117 -20357484.575 10 0 60884 900.00000 0 16903484.844 -4181761.949 -18610743.044 10 0 60884 1800.00000 0 19046494.240 -3801674.210 -16501634.371 10 0 60884 2700.00000 0 20936387.558 -3628865.994 -14071170.105 10 0 60884 3600.00000 0 22519396.089 -3629149.714 -11366648.862 10 0 60884 4500.00000 0 23751520.945 -3759285.664 -8440731.181 10 0 60884 5400.00000 0 24600264.861 -3969036.978 -5350406.626 10 0 60884 6300.00000 0 25045896.288 -4203528.757 -2155873.823 10 0 60884 7200.00000 0 25082192.457 -4405809.924 1080643.636 10 0 60884 8100.00000 0 24716630.366 -4519507.641 4296121.117 10 0 60884 9000.00000 0 23970018.199 -4491460.181 7427971.477 10 0 60884 9900.00000 0 22875583.708 -4274215.178 10415272.729 10 0 60884 10800.00000 0 21477559.120 -3828286.178 13199959.814 10 0 60884 11700.00000 0 19829323.609 -3124071.089 15727956.513 10 0 60884 12600.00000 0 17991182.822 -2143350.821 17950225.039 10 0 60884 13500.00000 0 16027879.945 -880304.688 19823713.045 10 0 60884 14400.00000 0 14005943.528 658000.290 21312180.191 10 0 60884 15300.00000 0 11990983.580 2451666.556 22386889.176 10 0 60884 16200.00000 0 10045048.786 4468567.124 23027149.070 10 0 60884 17100.00000 0 8224154.539 6665465.421 23220701.815 10 0 60884 18000.00000 0 6576083.675 8989607.175 22963945.801 10 0 60884 18900.00000 0 5138549.985 11380718.350 22261993.414 10 0 60884 19800.00000 0 3937799.103 13773326.572 21128562.472 10 0 60884 20700.00000 0 2987703.132 16099310.337 19585704.260 10 0 60884 21600.00000 0 2289384.791 18290571.095 17663373.729 10 0 60884 22500.00000 0 1831385.015 20281718.317 15398850.056 10 0 60884 23400.00000 0 1590365.582 22012657.076 12836018.395 10 0 60884 24300.00000 0 1532316.247 23430971.618 10024526.057 10 0 60884 25200.00000 0 1614215.114 24494006.600 7018828.652 10 0 60884 26100.00000 0 1786072.147 25170559.964 3877143.839 10 0 60884 27000.00000 0 1993269.829 25442117.234 660332.138 10 0 60884 27900.00000 0 2179102.484 25303575.836 -2569274.253 10 0 60884 28800.00000 0 2287407.384 24763429.001 -5749072.477 10 0 60884 29700.00000 0 2265176.691 23843401.184 -8817397.053 10 0 60884 30600.00000 0 2065039.930 22577549.636 -11714711.806 10 0 60884 31500.00000 0 1647511.832 21010869.036 -14384762.739 10 0 60884 32400.00000 0 982909.976 19197456.739 -16775669.573 10 0 60884 33300.00000 0 52860.309 17198314.602 -18840934.803 10 0 60884 34200.00000 0 -1148674.370 15078878.563 -20540350.598 10 0 60884 35100.00000 0 -2614888.033 12906378.562 -21840785.806 10 0 60884 36000.00000 0 -4326170.490 10747138.575 -22716837.561 10 0 60884 36900.00000 0 -6250692.488 8663929.165 -23151334.458 10 0 60884 37800.00000 0 -8345514.539 6713482.885 -23135681.046 10 0 60884 38700.00000 0 -10558175.165 4944276.196 -22670036.285 10 0 60884 39600.00000 0 -12828693.931 3394670.609 -21763321.734 10 0 60884 40500.00000 0 -15091906.940 2091490.855 -20433058.425 10 0 60884 41400.00000 0 -17280038.150 1049099.606 -18705034.681 10 0 60884 42300.00000 0 -19325399.378 269007.546 -16612810.500 10 0 60884 43200.00000 0 -21163106.006 -259965.101 -14197067.457 10 0 60884 44100.00000 0 -22733694.170 -560982.805 -11504816.294 10 0 60884 45000.00000 0 -23985529.132 -667975.192 -8588477.624 10 0 60884 45900.00000 0 -24876902.772 -623956.224 -5504853.857 10 0 60884 46800.00000 0 -25377731.170 -478954.488 -2314013.003 10 0 60884 47700.00000 0 -25470780.430 -287643.703 921892.792 10 0 60884 48600.00000 0 -25152368.772 -106775.566 4139849.780 10 0 60884 49500.00000 0 -24432515.484 7474.602 7277221.009 10 0 60884 50400.00000 0 -23334531.030 2135.266 10272975.085 10 0 60884 51300.00000 0 -21894066.377 -170073.563 13068880.259 10 0 60884 52200.00000 0 -20157662.718 -548498.652 15610639.794 10 0 60884 53100.00000 0 -18180863.744 -1162653.459 17848946.072 10 0 60884 54000.00000 0 -16025970.916 -2030740.245 19740433.052 10 0 60884 54900.00000 0 -13759536.626 -3158656.742 21248509.122 10 0 60884 55800.00000 0 -11449700.733 -4539529.012 22344055.080 10 0 60884 56700.00000 0 -9163481.718 -6153789.826 23005974.957 10 0 60884 57600.00000 0 -6964134.928 -7969799.087 23221590.398 10 0 60884 58500.00000 0 -4908686.967 -9944980.210 22986872.336 10 0 60884 59400.00000 0 -3045747.363 -12027425.117 22306506.734 10 0 60884 60300.00000 0 -1413686.716 -14157901.312 21193794.144 10 0 60884 61200.00000 0 -39255.130 -16272178.008 19670385.652 10 0 60884 62100.00000 0 1063303.628 -18303575.320 17765860.664 10 0 60884 63000.00000 0 1892607.335 -20185631.401 15517154.577 10 0 60884 63900.00000 0 2459946.754 -21854777.497 12967847.052 10 0 60884 64800.00000 0 2788562.638 -23252910.532 10167324.021 10 0 60884 65700.00000 0 2912419.608 -24329756.833 7169828.849 10 0 60884 66600.00000 0 2874528.953 -25044929.039 4033420.204 10 0 60884 67500.00000 0 2724891.216 -25369590.676 818855.979 10 0 60884 68400.00000 0 2518145.150 -25287658.891 -2411575.835 10 0 60884 69300.00000 0 2311022.053 -24796494.801 -5595257.250 10 0 60884 70200.00000 0 2159712.752 -23907052.040 -8670448.530 10 0 60884 71100.00000 0 2117258.265 -22643476.505 -11577481.494 10 0 60884 72000.00000 0 2231074.502 -21042173.131 -14259914.886 10 0 60884 72900.00000 0 2540715.849 -19150377.663 -16665629.462 10 0 60884 73800.00000 0 3075972.777 -17024292.079 -18747841.618 10 0 60884 74700.00000 0 3855384.762 -14726860.550 -20466015.755 10 0 60884 75600.00000 0 4885232.608 -12325277.871 -21786657.559 10 0 60884 76500.00000 0 6159054.333 -9888333.508 -22683972.584 10 0 60884 77400.00000 0 7657706.938 -7483701.464 -23140376.954 10 0 60884 78300.00000 0 9349973.519 -5175288.481 -23146849.809 10 0 60884 79200.00000 0 11193692.356 -3020750.877 -22703120.011 10 0 60884 80100.00000 0 13137362.491 -1069283.486 -21817682.666 10 0 60884 81000.00000 0 15122160.105 640227.079 -20507644.322 10 0 60884 81900.00000 0 17084282.402 2080607.688 -18798398.903 10 0 60884 82800.00000 0 18957521.417 3237303.743 -16723139.847 10 0 60884 83700.00000 0 20675960.021 4108746.276 -14322217.256 10 0 60884 84600.00000 0 22176676.717 4706166.137 -11642352.085 10 0 60884 85500.00000 0 23402345.010 5052863.755 -8735722.621 99